SCP
0 0 0 0 0 0 0 0 0 0 0 0 0 0 0 0 0 0 0 0 0 0 0 0 0 0 0 0 0 0 0 0 0 0 0 0 0 0 0 0 0 0 0 0 0 0 0 0 0
0 0 0 0 0 0 0 0 0 0 0 0 0 0 0 0 0 0 0 0 0 0 0 0 0 0 0 0 0 0 0 0 0 0 0 0 0 0 0 0 0 0 0 0 0 0 0 0 0
0 0 0 0 0 0 0 0 0 0 0 0 0 0 0 0 0 0 0 0 0 0 0 0 0 0 0 0 0 0 0 0 0 0 0 0 0 0 0 0 0 0 0 0 0 0 0 0 0
0 0 0 0 0 0 0 0 0 0 0 0 0 0 0 0 0 0 0 0 0 0 0 0 0 0 0 0 0 0 0 0 0 0 0 0 0 0 0 0 0 0 0 0 0 0 0 0 0
0 0 0 0 0 0 0 0 0 0 0 0 0 0 0 0 0 0 0 0 0 0 0 0 0 0 0 0 0 0 0 0 0 0 0 0 0 0 0 0 0 0 0 0 0 0 0 0 0
0 0 0 0 0 0 0 0 0 0 0 0 0 0 0 0 0 0 0 0 0 0 0 0 0 0 0 0 0 0 0 0 0 0 0 0 0 0 0 0 0 0 0 0 0 0 0 0 0
0 0 0 0 0 0 0 0 0 0 0 0 0 0 0 0 0 0 0 0 0 0 0 0 0 0 0 0 0 0 0 0 0 0 0 0 0 0 0 0 0 0 0 0 0 0 0 0 0
0 0 0 0 0 0 0 0 0 0 0 0 0 0 0 0 0 0 0 0 0 0 0 0 0 0 0 0 0 0 0 0 0 0 0 0 0 0 0 0 0 0 0 0 0 0 0 0 0
0 0 0 0 0 0 0 0 0 0 0 0 0 0 0 0 0 0 0 0 0 0 0 0 0 0 0 0 0 0 0 0 0 0 0 0 0 0 0 0 0 0 0 0 0 0 0 0 0
0 0 0 0 0 0 0 0 0 0 0 0 0 0 0 0 0 0 0 0 0 0 0 0 0 0 0 0 0 0 0 0 0 0 0 0 0 0 0 0 0 0 0 0 0 0 0 0 0
0 0 0 0 0 0 0 0 0 0 0 0 0 0 0 0 0 0 0 0 0 0 0 0 0 0 0 0 0 0 0 0 0 0 0 0 0 0 0 0 0 0 0 0 0 0 0 0 0
0 0 0 0 0 0 0 0 0 0 0 0 0 0 0 0 0 0 0 0 0 0 0 0 0 0 0 0 0 0 0 0 0 0 0 0 0 0 0 0 0 0 0 0 0 0 0 0 0
0 0 0 0 0 0 0 0 0 0 0 0 0 0 0 0 0 0 0 0 0 0 0 0 0 0 0 0 0 0 0 0 0 0 0 0 0 0 0 0 0 0 0 0 0 0 0 0 0
0 0 0 0 0 0 0 0 0 0 0 0 0 0 0 0 0 0 0 0 0 0 0 0 0 0 0 0 0 0 0 0 0 0 0 0 0 0 0 0 0 0 0 0 0 0 0 0 0
0 0 0 0 0 0 0 0 0 0 0 0 0 0 0 0 0 0 0 0 0 0 0 0 0 0 0 0 0 0 0 0 0 0 0 0 0 0 0 0 0 0 0 0 0 0 0 0 0
0 0 0 0 0 0 0 0 0 0 0 0 0 0 0 0 0 0 0 0 0 0 0 0 0 0 0 0 0 0 0 0 0 0 0 0 0 0 0 0 0 0 0 0 0 0 0 0 0
0 0 0 0 0 0 0 0 0 0 0 0 0 0 0 0 0 0 0 0 0 0 0 0 0 0 0 0 0 0 0 0 0 0 0 0 0 0 0 0 0 0 0 0 0 0 0 0 0
0 0 0 0 0 0 0 0 0 0 0 0 0 0 0 0 0 0 0 0 0 0 0 0 0 0 0 0 0 0 0 0 0 0 0 0 0 0 0 0 0 0 0 0 0 0 0 0 0
0 0 0 0 0 0 0 0 0 0 0 0 0 0 0 0 0 0 0 0 0 0 0 0 0 0 0 0 0 0 0 0 0 0 0 0 0 0 0 0 0 0 0 0 0 0 0 0 0
0 0 0 0 0 0 0 0 0 0 0 0 0 0 0 0 0 0 0 0 0 0 0 0 0 0 0 0 0 0 0 0 0 0 0 0 0 0 0 0 0 0 0 0 0 0 0 0 0
0 0 0 0 0 0 0 0 0 0 0 0 0 0 0 0 0 0 0 0 0 0 0 0 0 0 0 0 0 0 0 0 0 0 0 0 0 0 0 0 0 0 0 0 0 0 0 0 0
0 0 0 0 0 0 0 0 0 0 0 0 0 0 0 0 0 0 0 0 0 0 0 0 0 0 0 0 0 0 0 0 0 0 0 0 0 0 0 0 0 0 0 0 0 0 0 0 0
0 0 0 0 0 0 0 0 0 0 0 0 0 0 0 0 0 0 0 0 0 0 0 0 0 0 0 0 0 0 0 0 0 0 0 0 0 0 0 0 0 0 0 0 0 0 0 0 0
0 0 0 0 0 0 0 0 0 0 0 0 0 0 0 0 0 0 0 0 0 0 0 0 0 0 0 0 0 0 0 0 0 0 0 0 0 0 0 0 0 0 0 0 0 0 0 0 0
0 0 0 0 0 0 0 0 0 0 0 0 0 0 0 0 0 0 0 0 0 0 0 0 0 0 0 0 0 0 0 0 0 0 0 0 0 0 0 0 0 0 0 0 0 0 0 0 0
0 0 0 0 0 0 0 0 0 0 0 0 0 0 0 0 0 0 0 0 0 0 0 0 0 0 0 0 0 0 0 0 0 0 0 0 0 0 0 0 0 0 0 0 0 0 0 0 0
0 0 0 0 0 0 0 0 0 0 0 0 0 0 0 0 0 0 0 0 0 0 0 0 0 0 0 0 0 0 0 0 0 0 0 0 0 0 0 0 0 0 0 0 0 0 0 0 0
0 0 0 0 0 0 0 0 0 0 0 0 0 0 0 0 0 0 0 0 0 0 0 0 0 0 0 0 0 0 0 0 0 0 0 0 0 0 0 0 0 0 0 0 0 0 0 0 0
0 0 0 0 0 0 0 0 0 0 0 0 0 0 0 0 0 0 0 0 0 0 0 0 0 0 0 0 0 0 0 0 0 0 0 0 0 0 0 0 0 0 0 0 0 0 0 0 0
0 0 0 0 0 0 0 0 0 0 0 0 0 0 0 0 0 0 0 0 0 0 0 0 0 0 0 0 0 0 0 0 0 0 0 0 0 0 0 0 0 0 0 0 0 0 0 0 0
Wind_Speed
11 5 1 3 5 4 1 1 1 2 2 2 3 4 6 4 3 3 2 3 4 3 2 3 4 6 8 8 9 9 9 10 10 10 11 11 10 11 10 10 10 10 10 10 10 10 10 10 10
4 3 4 5 4 1 2 1 1 2 3 3 4 5 5 4 3 3 2 3 4 4 3 3 5 7 8 8 9 9 9 9 9 10 10 10 10 10 10 10 10 10 10 9 10 10 10 9 9
2 3 4 4 3 4 2 0 1 3 4 3 4 5 4 3 3 2 2 2 4 5 4 4 6 8 8 8 9 9 8 9 9 10 10 10 10 9 9 9 9 9 9 9 9 9 9 9 9
2 4 5 4 2 1 2 1 2 3 4 5 4 4 3 4 3 2 2 4 5 5 5 5 8 9 9 9 9 9 9 8 8 9 9 9 9 9 9 9 9 9 9 9 9 8 8 8 8
4 4 4 2 1 1 1 1 2 3 3 3 3 4 3 4 4 4 4 5 6 6 5 5 8 9 9 9 9 9 9 9 9 9 8 8 9 9 9 9 9 9 9 8 8 8 8 8 8
5 4 4 2 1 1 1 2 2 4 3 3 3 4 3 3 4 4 4 5 5 6 6 6 9 10 9 9 9 9 9 9 9 9 9 9 9 9 9 9 9 8 9 9 8 9 9 9 8
4 4 3 3 2 1 1 2 3 3 3 2 1 4 2 1 3 3 4 6 6 6 6 5 5 6 8 9 10 10 11 11 10 10 10 10 10 9 9 9 8 8 8 8 8 8 8 8 9
4 5 3 2 3 1 2 2 3 3 3 2 2 4 2 1 1 3 5 6 6 6 6 5 5 5 5 6 10 11 12 12 11 11 11 10 10 10 10 9 10 9 9 8 8 8 7 7 8
3 5 2 3 3 2 1 3 3 3 4 3 3 2 1 3 4 5 5 5 5 5 5 4 5 5 5 5 8 9 10 11 10 9 10 8 5 6 6 9 11 11 11 10 9 9 8 7 7
5 4 3 1 2 3 2 3 1 3 3 3 3 3 4 5 5 5 5 4 3 3 3 3 4 4 4 4 4 4 5 6 6 6 6 5 4 5 6 9 11 11 11 10 10 9 8 6 4
4 3 2 2 2 3 3 3 3 3 1 0 1 3 4 4 4 4 3 3 2 2 2 3 3 3 4 3 3 3 3 3 5 6 6 5 4 4 4 4 5 6 8 6 7 6 4 4 3
6 4 3 2 2 3 3 2 3 3 1 1 1 4 5 5 4 3 2 2 2 3 2 2 2 3 3 3 3 3 2 2 3 4 5 4 3 4 3 3 4 4 3 4 4 3 4 5 4
4 3 4 5 6 5 5 3 3 1 2 2 3 5 5 4 3 2 2 2 2 2 2 2 2 2 2 3 2 3 2 2 3 3 4 4 3 3 3 3 3 4 3 3 4 4 4 4 4
3 4 3 4 4 3 4 2 2 1 1 2 3 3 4 4 3 2 2 2 1 1 1 2 2 2 2 3 2 2 2 2 2 3 3 4 3 3 3 3 3 3 3 3 3 4 3 3 3
3 4 4 4 3 1 2 3 0 1 1 2 1 2 2 3 3 3 3 2 1 0 1 1 1 2 2 3 3 2 2 2 2 2 3 4 4 3 3 3 3 3 3 3 3 4 3 3 3
3 3 2 3 3 2 1 2 1 1 2 1 1 1 1 2 2 2 2 2 2 1 1 1 1 2 2 2 2 2 2 2 2 2 2 4 4 3 3 3 3 3 3 3 3 3 3 3 3
4 2 0 2 3 2 1 3 2 1 1 1 1 2 2 2 2 1 1 2 2 2 1 1 1 2 2 3 3 3 3 3 2 2 3 3 4 3 3 2 3 3 3 3 3 3 2 3 3
2 1 0 2 3 3 1 3 3 2 2 3 2 2 2 3 3 2 1 2 2 2 2 1 1 1 2 2 2 2 3 2 2 2 3 3 3 3 3 2 3 3 3 3 3 3 3 2 2
3 3 1 2 2 1 2 4 6 4 3 4 3 3 4 4 2 1 1 1 1 1 2 2 2 1 2 2 1 1 1 1 1 2 3 3 3 3 3 3 3 3 3 3 3 2 3 3 3
2 2 2 2 1 1 2 6 6 5 5 5 5 5 5 4 1 1 1 1 1 1 1 2 2 2 2 2 2 1 1 0 1 2 2 3 3 3 3 3 2 2 2 3 3 3 2 2 3
1 2 2 2 3 1 2 6 4 4 3 3 4 4 4 4 4 3 2 2 1 1 2 2 2 2 2 2 2 2 2 1 1 2 2 3 3 3 3 3 3 2 2 2 2 2 2 1 2
1 1 1 1 1 2 1 4 6 4 4 5 5 5 5 4 4 3 3 3 2 2 1 1 1 1 2 2 3 3 2 1 1 1 1 2 3 3 3 3 3 3 2 2 2 3 2 1 1
2 0 1 0 1 1 1 2 8 2 5 7 7 6 5 5 4 4 4 4 3 2 1 1 1 1 2 2 3 3 2 1 1 1 1 2 2 2 3 3 3 3 2 3 2 2 2 2 1
2 1 2 2 2 2 3 3 8 5 6 5 5 5 5 4 4 4 3 2 2 1 1 1 1 1 2 2 2 3 3 2 1 1 1 1 1 2 3 3 3 2 2 2 2 2 2 2 2
2 3 4 5 3 5 1 3 10 6 5 4 4 5 5 4 4 4 3 2 2 2 1 1 1 1 1 2 2 2 2 2 2 1 0 1 1 2 2 3 2 2 2 2 2 2 2 2 2
0 3 5 3 4 5 1 6 9 3 3 3 3 3 4 4 4 4 4 3 3 3 2 2 2 1 1 2 2 2 2 1 1 1 0 0 0 1 1 2 2 2 2 2 1 1 1 1 1
2 1 2 4 1 2 5 7 9 2 3 2 3 2 4 4 4 4 3 3 3 3 3 3 2 1 1 2 2 2 2 2 1 1 1 0 0 1 1 1 1 1 1 1 1 1 1 1 1
1 3 3 3 2 3 6 5 6 5 5 4 4 4 4 3 3 3 2 3 3 3 2 2 2 2 1 2 2 2 2 2 1 1 1 0 0 0 0 1 1 1 1 1 1 1 1 1 1
1 1 2 2 2 3 4 8 6 5 4 4 5 4 4 4 3 3 2 2 2 2 1 1 1 1 1 1 1 2 1 1 1 1 0 0 0 0 0 1 1 1 1 1 1 1 1 1 1
1 2 4 3 3 3 3 9 3 3 3 3 4 3 2 3 2 2 2 2 2 2 2 1 1 1 1 1 2 2 1 1 1 1 0 0 1 0 0 1 1 1 1 1 1 1 1 1 1
Wind_Direction
333 328 36 58 59 58 181 235 128 75 59 35 56 87 105 98 115 128 57 45 69 77 60 69 68 87 91 88 87 86 85 82 79 77 77 76 73 70 68 67 65 66 67 67 66 65 64 64 65
320 339 50 60 93 128 252 274 101 54 113 87 48 58 75 70 47 69 50 20 69 75 65 66 65 83 86 88 88 88 87 85 82 79 76 74 71 69 67 64 62 61 62 62 62 62 63 63 65
321 41 77 81 117 173 192 87 124 63 69 73 63 50 68 59 34 31 19 65 72 66 55 59 67 78 80 84 85 86 84 84 82 80 76 73 70 68 66 63 60 59 58 58 58 60 60 60 61
58 50 57 81 146 194 167 92 123 105 62 50 89 80 65 38 14 16 53 78 80 65 54 59 69 75 75 76 79 80 80 80 79 79 77 73 70 66 62 60 58 56 55 55 55 57 58 58 58
57 77 73 78 153 54 53 52 87 79 66 42 85 97 67 16 34 63 78 76 79 65 50 54 62 68 72 73 75 74 73 72 72 72 70 70 68 65 60 58 57 56 54 53 53 53 53 54 55
60 70 100 162 171 76 34 12 80 73 74 62 70 95 85 37 54 67 79 77 72 69 55 52 57 59 59 62 65 66 66 68 68 68 67 64 63 61 56 52 51 52 52 52 51 51 52 52 50
101 98 130 154 149 115 39 31 84 95 86 57 67 102 92 47 39 71 81 79 70 63 58 49 46 52 55 56 55 59 61 62 63 64 61 57 56 56 51 45 47 47 46 47 45 46 49 50 48
108 105 108 143 150 167 17 36 53 72 103 42 58 116 150 217 73 81 85 81 73 61 53 44 40 46 46 52 56 57 57 57 56 55 52 48 46 47 45 40 41 40 38 39 40 41 45 47 45
75 86 148 186 169 167 42 61 32 41 89 66 50 67 127 134 117 101 86 73 69 61 51 45 42 44 47 56 56 56 55 52 50 48 47 45 36 34 36 35 38 40 36 35 36 38 39 41 39
68 117 180 163 141 128 68 68 70 76 69 61 49 45 95 117 118 111 98 90 80 69 58 51 50 49 54 60 59 53 55 50 47 45 39 37 35 33 35 33 34 34 33 31 32 35 36 32 25
70 116 105 48 64 100 91 55 32 109 81 138 154 136 119 107 104 104 106 104 100 90 76 62 59 59 64 64 62 54 52 46 46 43 38 36 35 32 32 30 24 23 26 23 22 24 23 24 25
81 63 70 46 38 70 85 83 52 56 50 8 131 143 135 128 128 125 119 98 88 77 58 67 69 70 74 76 71 66 62 52 50 46 42 43 38 31 28 32 24 22 18 17 17 19 20 24 28
76 82 57 60 65 74 78 76 90 45 11 42 96 120 136 140 135 128 123 110 96 94 72 53 81 86 88 86 79 76 69 65 57 52 45 51 49 34 26 27 27 22 17 16 11 12 18 21 24
97 93 72 39 48 54 79 55 71 318 33 72 103 140 154 161 157 139 128 122 109 78 66 65 69 63 76 90 85 81 74 69 65 58 47 50 53 43 31 23 22 17 10 7 10 6 11 18 26
100 82 50 28 29 43 79 23 347 229 113 102 124 177 175 183 172 166 159 151 154 112 55 75 93 71 68 97 98 86 72 72 69 59 50 48 48 44 37 29 20 8 4 6 11 8 19 29 28
65 67 43 356 17 349 95 259 293 185 135 155 198 204 195 215 203 182 165 162 153 143 90 71 79 83 66 80 94 89 78 71 63 57 49 43 41 42 44 32 19 5 9 13 13 14 22 23 20
46 73 346 326 9 10 88 240 278 242 168 225 243 233 223 242 246 222 176 171 162 157 148 112 81 91 92 76 74 76 74 67 56 50 42 35 37 39 44 36 19 14 20 18 14 19 24 19 12
178 143 235 282 336 15 336 263 283 277 226 244 251 260 244 241 241 230 183 167 163 156 151 153 118 97 103 92 76 63 61 60 58 57 44 34 31 34 38 42 25 19 26 23 19 19 17 19 1
135 144 223 277 317 345 262 271 273 259 244 254 253 250 255 245 244 234 184 152 137 162 162 172 141 121 118 105 101 92 50 33 48 56 53 44 34 30 34 32 29 25 31 20 26 26 26 21 7
117 130 279 301 331 286 284 280 265 240 225 227 233 232 237 252 240 242 211 156 170 188 197 184 173 158 148 140 134 134 121 57 48 44 43 42 39 30 28 31 32 23 25 27 32 34 31 20 12
49 188 226 268 328 356 323 299 267 253 232 233 234 227 221 223 219 219 216 201 187 208 220 211 190 165 161 139 114 97 82 54 28 24 23 25 35 40 31 26 29 24 29 32 28 29 44 29 11
265 228 176 245 336 307 13 289 275 253 262 244 237 230 223 222 219 208 213 210 209 224 222 210 200 168 159 141 141 143 138 133 341 3 12 16 30 37 39 32 27 26 30 40 27 36 27 46 19
185 79 101 206 194 306 320 249 282 276 259 252 236 227 223 216 211 209 214 213 203 199 197 206 186 159 143 145 151 149 143 133 81 47 24 13 23 28 33 38 32 29 33 39 40 39 40 45 44
166 59 44 44 63 291 236 203 276 238 230 250 233 223 218 212 210 210 214 199 181 177 181 173 172 167 151 146 149 159 159 151 132 64 10 354 15 25 32 33 33 32 32 33 37 47 54 53 57
59 81 33 4 358 261 229 219 252 246 228 227 233 227 215 204 205 204 204 205 197 191 191 179 175 187 165 148 148 160 166 166 173 190 228 342 13 13 20 28 31 30 27 27 37 55 53 57 58
275 125 148 197 241 283 282 241 256 253 254 253 247 228 204 203 206 208 207 207 207 197 191 188 197 203 162 153 159 151 152 161 176 172 184 287 333 344 18 32 34 22 21 28 40 54 47 57 53
116 128 151 131 69 300 280 285 297 266 272 259 246 226 220 218 213 211 207 213 206 198 198 194 196 195 190 183 164 153 150 150 159 139 101 68 0 1 26 46 43 22 22 29 41 48 37 45 40
95 145 102 119 146 281 296 279 261 271 262 258 246 237 235 224 218 214 212 207 201 197 196 179 179 191 198 184 173 156 152 144 137 114 97 112 6 1 18 38 38 31 30 34 50 48 36 48 28
91 109 117 120 158 171 284 276 233 234 240 238 245 239 229 222 216 213 216 204 187 173 164 165 160 147 160 159 141 133 134 121 117 117 158 165 100 66 39 57 52 38 32 32 56 43 40 41 17
202 194 163 163 230 203 231 271 275 242 250 239 252 251 228 215 207 197 203 185 175 183 177 176 160 164 179 140 127 127 121 113 113 119 98 67 67 60 79 88 74 46 29 35 51 20 28 32 357